Wind_Speed
33 32 32 31 31 31 30 29 29 29 29 29 27 26 26 25 25 24 24 23 22 21 20 19 18 17 15 14 13 12 12 12 12 12 13 13 13 14 15 15 16 16 17 17 19 20 22 25 27 28 30 31 32 33 34 34 36 37 38 37 32 29 28 28 29 30 31 32 33 33 34 35 36 36 36 36 35 32 31 32 31 28 25 24 23
34 34 33 33 33 33 32 30 30 30 31 30 29 28 28 27 27 26 25 24 23 22 21 20 19 17 16 15 14 14 13 13 14 14 14 14 15 15 16 17 17 18 18 19 20 21 23 25 27 29 30 31 32 33 33 34 35 37 38 35 30 28 27 28 29 30 30 31 32 33 34 34 35 36 36 37 36 33 31 31 31 27 23 22 22
34 34 34 33 33 33 32 32 32 32 32 31 30 30 30 29 28 27 26 26 25 23 22 21 19 18 17 16 15 15 15 15 15 15 16 16 16 17 18 18 19 19 19 20 20 21 23 25 27 29 30 31 32 33 33 34 35 37 37 33 28 26 27 27 28 29 30 30 32 33 34 35 36 37 37 38 37 34 31 30 30 28 22 20 20
34 34 34 34 33 33 34 34 33 33 33 32 32 32 31 31 31 29 29 28 26 24 23 22 21 19 18 18 17 17 16 16 17 17 17 17 17 18 18 18 18 19 19 20 21 22 24 25 27 29 30 30 32 33 33 34 36 37 35 31 27 26 26 27 28 29 30 31 32 33 34 36 37 38 39 38 37 36 32 30 30 28 24 19 18
35 35 35 35 34 35 36 36 36 34 33 32 32 32 32 33 32 31 30 29 27 26 25 24 22 21 20 20 19 18 18 18 18 17 17 18 18 18 17 18 18 19 20 21 22 24 25 26 28 29 29 30 32 33 33 34 36 36 33 28 25 25 26 27 27 28 29 30 32 33 34 35 37 38 38 38 38 37 34 31 30 29 26 21 17
36 36 36 36 36 37 38 39 38 36 33 33 33 33 33 33 33 32 31 29 28 27 26 25 24 23 22 22 21 20 20 19 18 18 18 18 18 18 18 19 19 20 21 22 23 25 26 27 28 28 29 30 32 33 33 35 36 35 31 26 24 25 25 26 26 27 28 29 30 32 34 36 37 38 38 38 38 37 36 33 31 29 27 24 20
37 37 37 38 39 39 39 40 39 36 34 34 34 34 33 33 33 33 32 30 30 29 28 27 26 25 25 24 23 22 22 21 19 19 18 19 19 19 20 20 21 22 23 24 25 26 27 28 28 28 29 30 32 32 33 34 35 34 29 25 23 24 24 26 26 26 27 28 29 30 31 33 36 36 37 38 37 35 35 34 32 30 27 25 22
38 38 38 39 40 40 40 40 39 37 36 35 35 35 35 34 34 34 33 32 32 31 30 29 28 28 27 26 25 24 23 22 21 20 20 20 20 20 21 21 22 24 25 25 26 27 28 28 27 28 29 30 32 32 33 34 34 32 27 23 22 22 23 25 26 26 27 28 29 29 29 31 33 34 35 36 35 34 32 32 32 30 28 25 22
37 38 39 40 40 40 40 40 39 39 38 37 37 37 36 35 35 35 35 34 33 32 31 31 31 30 29 28 27 26 25 23 23 22 22 22 22 21 21 22 24 25 26 27 27 28 28 27 27 28 29 31 32 32 33 34 34 31 26 22 21 21 21 23 25 26 27 28 29 30 30 31 32 34 34 33 33 32 30 29 30 30 30 28 24
37 38 39 40 39 39 39 39 39 39 40 40 39 38 37 36 36 36 35 35 35 34 33 33 33 32 31 30 29 28 27 25 25 24 24 24 23 23 23 24 25 26 27 28 28 29 29 28 28 29 30 31 32 33 34 35 34 30 25 21 21 20 20 23 25 26 27 27 28 30 31 31 31 33 33 32 31 30 28 26 26 28 28 29 27
38 38 39 39 38 38 39 39 39 40 41 42 41 40 39 38 37 36 36 36 36 35 35 35 34 33 33 32 31 30 28 27 27 26 26 26 25 25 25 25 27 28 28 29 29 29 29 29 29 30 30 31 32 33 34 35 34 30 24 22 21 20 21 23 25 26 27 27 27 29 31 32 31 32 32 31 30 29 26 23 23 25 27 27 26
40 39 37 37 38 39 40 40 40 40 42 43 42 41 41 40 38 38 37 37 37 37 37 37 36 35 35 34 33 32 31 30 29 29 28 28 28 27 27 27 28 29 30 30 30 30 30 30 30 30 30 31 32 33 35 35 34 30 24 22 21 21 21 23 25 26 27 28 28 28 30 32 33 32 32 31 30 27 25 22 21 23 25 25 24
41 39 37 37 38 39 40 41 41 41 41 42 43 43 43 42 41 40 39 38 38 38 39 39 38 37 37 37 35 34 33 33 32 31 31 31 30 30 29 29 30 30 31 31 31 31 31 31 31 31 31 31 32 34 35 35 33 29 25 23 22 21 21 24 25 26 27 29 30 29 29 32 34 33 32 31 29 27 25 22 20 21 22 24 25
42 40 38 38 38 38 38 40 41 41 42 41 42 44 45 45 43 42 41 40 40 41 40 39 39 39 39 38 37 37 36 35 34 33 33 33 33 32 31 31 31 32 32 33 32 32 32 32 32 31 31 32 33 35 35 35 33 29 25 23 22 21 22 24 25 26 27 28 30 30 30 31 33 34 32 30 29 26 23 21 19 19 23 30 34
43 41 40 39 38 37 37 38 39 40 41 42 43 44 46 46 46 45 44 43 42 42 41 40 40 41 40 40 40 39 38 37 36 35 35 35 35 33 32 32 33 33 33 34 33 33 33 32 32 32 31 32 33 35 36 35 33 29 26 24 23 22 22 24 25 25 25 26 28 29 30 29 30 32 31 30 28 25 23 20 14 15 28 40 44
44 43 42 40 39 38 38 37 37 37 39 41 43 44 45 46 46 46 46 45 44 44 43 43 42 42 41 41 41 41 40 38 38 38 37 36 35 34 33 34 34 35 35 34 34 34 34 33 33 32 32 33 34 35 36 35 33 30 27 26 25 23 23 25 26 25 25 25 26 28 29 28 29 30 30 30 27 23 24 21 13 18 36 49 49
46 46 45 44 42 41 40 39 38 37 37 39 42 43 43 44 45 46 47 47 46 46 45 44 43 43 43 43 43 42 41 41 40 40 38 37 36 35 35 36 36 36 36 35 35 35 34 34 33 32 33 33 34 35 36 35 33 31 29 28 27 25 24 26 27 26 25 26 26 27 28 28 28 28 29 30 27 23 25 24 18 25 41 49 48
47 48 47 46 44 43 42 41 40 38 37 38 40 41 42 43 43 45 48 49 49 48 47 45 45 44 45 45 45 44 43 43 42 41 40 39 38 38 38 38 38 38 36 36 36 36 35 34 34 33 34 34 35 36 36 36 34 31 29 29 28 27 26 27 28 27 27 28 28 28 28 28 28 28 29 31 29 26 26 25 21 26 38 43 45
49 49 49 48 47 45 43 42 41 40 38 38 38 39 41 42 42 44 46 49 50 50 49 48 47 46 46 46 46 45 45 45 44 43 42 42 42 41 41 41 40 38 37 37 38 37 36 35 35 35 36 36 36 37 36 36 34 32 30 30 30 29 27 28 29 29 29 30 31 31 32 31 30 30 30 32 31 30 30 28 24 27 33 35 37
51 50 50 49 49 47 46 44 42 40 39 37 37 38 40 40 41 43 45 47 48 49 50 50 50 49 48 48 47 47 47 47 47 46 45 44 44 44 43 43 41 39 38 38 39 38 37 36 36 37 37 38 38 38 38 37 35 33 31 31 31 30 29 29 30 29 30 32 33 34 34 34 34 33 34 35 36 35 34 33 32 34 34 33 34
52 51 51 50 50 48 47 45 43 42 40 38 37 37 39 40 41 42 44 45 46 48 49 50 50 50 50 50 49 49 49 49 49 48 47 45 45 45 45 44 42 39 39 40 40 39 38 37 37 38 39 39 39 40 39 38 36 34 32 31 31 30 30 30 31 31 31 32 33 34 35 36 36 36 37 39 41 41 40 39 38 39 39 39 40
51 51 51 51 50 49 48 46 45 43 42 40 39 38 38 39 41 42 43 44 45 46 47 48 48 49 49 50 50 51 50 50 49 49 47 45 45 45 46 45 42 40 41 41 41 40 39 39 39 40 40 41 41 41 41 39 36 33 32 32 32 31 31 32 33 33 33 34 34 35 36 37 37 37 39 41 43 43 44 44 42 42 44 44 45
49 50 50 51 50 49 48 47 46 44 43 42 41 39 39 39 40 42 43 44 44 44 44 45 46 46 47 48 50 50 50 49 49 48 46 45 45 46 46 45 43 42 42 42 42 41 41 41 41 42 42 42 42 42 40 37 35 34 34 34 33 33 33 34 35 35 34 35 35 36 37 38 39 40 41 42 44 45 45 46 46 46 46 47 48
48 50 51 51 51 51 50 49 48 47 46 45 44 42 41 40 41 42 43 43 44 44 43 44 44 45 46 47 48 49 49 48 47 46 45 45 45 45 45 45 44 44 44 44 43 43 43 43 43 44 43 43 42 41 40 38 37 36 36 35 35 35 35 36 37 37 37 37 37 38 39 41 42 42 43 43 45 46 47 48 49 50 49 49 50
49 51 52 54 55 55 55 54 52 51 50 48 47 46 45 43 43 43 43 43 43 43 43 44 45 46 46 47 48 48 47 47 46 45 45 45 44 44 45 45 45 45 45 45 44 44 44 44 45 45 44 43 43 42 41 40 40 39 37 36 36 37 37 37 38 39 39 39 40 40 41 42 43 44 44 45 46 47 48 48 50 52 53 52 53
51 52 53 55 56 57 57 56 55 54 52 51 50 49 48 47 46 45 44 43 43 43 43 43 44 45 45 46 46 46 45 45 46 45 45 44 44 44 44 45 45 45 45 45 45 45 46 46 46 46 46 45 45 45 44 43 42 40 39 38 38 39 39 39 39 39 40 41 41 42 43 44 45 46 47 48 48 49 50 50 50 52 54 54 55
50 51 52 53 54 55 55 56 55 55 54 53 52 51 51 50 49 47 46 45 43 43 43 42 43 43 43 43 43 43 44 44 45 45 44 43 43 44 44 45 45 45 46 47 47 47 48 48 48 48 48 47 47 46 46 45 43 41 40 40 40 40 40 40 40 41 42 43 44 45 45 46 47 48 49 50 51 52 52 53 52 54 55 55 57
47 48 49 50 51 52 53 54 54 54 54 53 53 53 52 51 51 50 49 48 47 46 45 44 44 43 43 42 42 42 43 44 44 44 43 43 44 45 45 46 47 47 48 49 49 49 50 50 50 50 49 49 48 48 47 46 44 43 42 42 42 42 41 42 42 42 43 44 45 47 48 48 49 50 51 53 54 55 55 56 56 56 56 57 58
43 45 46 48 50 51 52 53 53 54 54 54 54 54 54 53 53 53 52 52 51 50 49 48 47 46 45 45 45 45 45 45 45 45 45 46 47 47 48 48 49 50 50 51 51 51 51 51 51 51 50 50 49 48 48 47 46 45 44 43 43 43 44 44 44 44 45 46 48 49 51 51 51 52 53 55 56 58 58 58 58 58 58 58 59
40 42 43 45 47 49 50 52 53 53 54 54 55 55 55 55 55 55 55 54 54 54 53 52 50 49 49 48 48 48 48 48 48 48 48 49 49 49 50 50 51 52 52 53 53 53 53 52 52 52 52 52 51 50 49 49 48 47 46 45 45 46 46 46 46 47 48 49 50 51 53 54 54 55 56 57 58 60 61 61 62 61 61 60 61
39 40 41 43 45 47 49 50 52 53 54 55 56 56 56 57 57 57 56 56 56 55 55 55 53 53 52 52 52 51 51 51 51 51 51 52 52 52 53 53 54 54 55 55 54 54 54 54 54 55 54 53 52 52 51 50 50 49 48 48 48 49 49 49 49 50 51 51 52 54 55 57 58 58 59 60 60 62 63 64 65 65 64 63 63
40 40 41 41 43 45 47 49 50 52 53 54 55 56 57 57 57 57 58 57 57 57 57 57 56 56 56 55 54 54 54 54 53 53 54 54 55 55 55 56 56 56 56 56 56 56 56 56 57 57 57 55 54 53 53 52 51 51 51 51 51 51 51 51 52 53 53 54 55 57 58 60 61 62 62 63 63 64 65 66 67 67 66 65 66
41 41 42 42 42 43 44 46 48 50 51 53 54 55 56 57 57 58 58 58 58 58 59 58 58 58 57 57 56 56 55 55 55 56 56 56 57 57 58 58 58 58 58 58 58 58 58 59 59 58 57 56 55 54 54 53 53 53 53 54 54 54 54 54 55 56 56 56 58 59 61 63 64 65 66 66 67 67 67 68 68 68 67 67 68
43 43 43 43 43 43 44 44 45 47 49 50 52 53 54 55 56 57 57 58 58 58 58 59 59 59 58 58 58 57 57 57 57 58 58 58 59 59 59 59 59 59 59 59 58 57 57 57 56 56 56 56 55 55 55 55 55 56 56 56 56 56 57 58 58 58 59 60 61 62 64 65 66 67 68 69 70 70 70 70 70 70 69 68 69
45 45 45 45 45 44 44 44 44 45 46 47 49 51 52 53 54 55 55 56 56 56 57 57 57 58 58 58 58 58 58 59 59 60 60 60 60 61 61 61 61 60 61 59 56 53 53 53 52 51 53 54 55 56 57 57 58 58 58 58 59 60 60 61 61 61 62 63 64 66 67 68 69 70 71 72 72 72 72 73 73 72 71 70 71
49 48 48 48 47 46 45 45 44 45 45 45 46 47 48 49 50 51 52 53 53 54 54 55 56 56 57 57 58 58 59 59 60 61 62 63 62 62 62 62 61 61 61 59 57 56 57 58 58 58 59 59 59 59 60 60 60 60 61 61 62 62 63 63 64 64 65 66 68 69 70 70 72 73 74 75 75 75 75 75 76 75 74 73 73
53 52 51 51 50 49 48 47 46 45 45 45 45 45 46 46 47 47 48 48 49 49 50 51 53 54 54 55 57 58 58 59 60 61 63 63 63 62 61 59 59 59 59 59 58 57 58 60 62 64 64 64 63 62 62 62 62 62 63 64 64 65 65 66 66 67 68 70 71 72 72 73 74 76 77 77 78 78 78 78 79 78 77 76 76
57 56 54 53 52 51 51 50 49 48 47 47 46 46 45 45 45 45 45 46 46 47 48 49 50 51 52 53 54 54 55 56 57 58 60 60 60 59 58 55 55 57 59 59 59 59 59 60 62 63 64 64 64 64 64 64 65 65 66 67 67 68 68 69 69 71 72 73 74 74 75 76 77 78 79 80 80 80 80 81 81 80 80 79 79
60 59 58 57 55 54 54 53 52 51 50 50 49 48 47 46 46 46 46 46 46 47 47 48 49 50 50 51 52 53 54 55 57 58 60 60 59 58 57 55 55 58 61 62 62 62 62 62 63 63 64 64 65 65 66 67 67 68 68 69 69 70 71 72 73 74 75 76 76 77 78 79 80 81 81 82 82 82 82 83 83 82 81 81 82
63 62 62 61 59 58 57 57 56 55 54 52 51 51 50 49 48 48 48 47 47 47 48 48 49 50 50 51 52 52 52 54 58 60 61 61 59 58 58 58 58 60 62 64 65 65 65 65 65 65 65 66 67 67 68 69 69 70 70 71 72 73 74 75 76 77 78 78 79 79 80 81 82 83 83 84 84 84 84 85 84 83 82 83 84
67 65 64 64 62 61 61 60 59 59 58 56 55 54 53 53 51 50 48 48 47 47 46 46 48 50 52 54 54 52 52 56 62 65 65 65 64 62 61 61 61 62 64 65 66 66 67 68 68 69 69 69 70 70 71 71 72 73 73 74 75 76 77 78 79 80 80 81 81 82 83 83 84 85 85 86 86 86 85 85 85 84 85 85 86
70 68 67 66 64 64 63 63 62 62 62 61 60 59 58 56 54 50 47 47 49 49 48 47 50 54 58 59 57 54 54 58 63 65 66 67 67 66 66 65 65 65 66 67 68 68 69 69 70 71 71 72 72 73 74 74 75 76 76 77 78 79 80 81 82 82 83 83 84 84 85 86 86 87 88 88 87 86 85 85 86 86 87 88 88
73 71 70 68 67 66 66 65 65 65 65 64 64 63 62 61 58 53 50 52 55 58 58 58 60 62 64 63 62 60 59 59 61 63 65 66 67 68 68 68 68 69 69 70 71 72 72 73 74 74 75 75 76 76 77 78 79 79 80 80 81 81 82 83 84 85 85 86 86 87 88 88 89 90 90 90 89 88 87 86 86 86 87 88 88
75 73 72 70 70 69 69 69 68 68 67 66 66 65 65 64 63 60 58 59 61 63 64 65 65 66 67 67 68 70 70 69 69 70 70 70 71 71 71 71 72 73 74 74 75 76 77 77 78 78 79 79 80 80 81 81 82 82 82 83 83 84 85 86 87 88 88 88 89 90 90 91 92 92 92 91 90 90 89 88 87 87 87 86 85
79 77 76 75 74 74 73 72 72 71 70 69 69 69 68 67 66 65 64 64 65 66 67 68 69 69 70 71 72 73 75 76 76 76 76 76 76 76 76 76 76 76 77 78 79 79 80 81 81 82 82 82 83 83 83 84 84 85 85 86 86 87 87 88 89 90 90 91 92 92 93 93 93 93 93 93 93 93 92 91 89 88 87 85 83
83 82 81 80 79 78 77 76 76 75 75 74 73 73 72 72 70 68 67 66 67 68 69 70 71 72 73 74 75 76 78 79 80 81 81 81 81 81 81 81 80 80 81 82 82 83 84 84 85 85 85 85 86 86 86 86 87 87 88 89 89 89 90 91 91 92 92 93 93 93 94 94 95 95 95 96 97 97 96 93 90 88 87 85 83
86 85 84 82 81 80 79 78 78 78 78 78 77 77 77 76 74 72 71 70 71 72 72 72 73 74 75 77 78 78 79 81 82 82 83 83 83 83 83 83 83 84 84 85 85 86 87 87 88 88 88 88 89 89 89 90 90 90 91 91 92 92 92 93 94 94 94 93 93 94 96 96 97 98 98 99 99 99 97 94 91 88 86 85 83
88 88 87 86 85 84 83 82 81 81 81 81 81 81 81 79 77 74 72 71 72 72 73 73 73 74 75 76 78 79 80 81 82 83 85 85 86 86 86 86 87 87 88 88 89 89 90 90 91 91 91 92 92 93 93 93 94 94 94 94 94 94 95 95 95 95 94 95 96 98 99 99 99 100 100 100 99 98 97 95 91 89 87 86 84
90 89 89 88 87 87 87 86 86 85 84 84 83 83 83 82 80 77 74 72 70 69 69 69 70 70 71 73 75 78 80 82 84 85 86 87 88 89 89 90 90 91 92 92 93 93 93 93 94 94 95 95 96 96 96 96 96 96 96 97 96 96 95 95 95 96 97 99 101 101 101 100 100 100 99 99 98 97 96 94 92 90 89 88 87
93 92 91 89 88 87 87 87 87 86 85 85 85 85 85 84 83 81 79 79 78 77 76 74 73 72 72 73 75 77 79 81 84 85 87 88 89 91 92 93 94 95 95 95 96 96 96 97 97 98 98 99 99 100 101 101 101 100 100 99 96 94 94 96 99 100 101 103 104 103 102 101 100 99 98 97 97 96 95 95 93 91 90 90 89
95 94 93 91 89 88 87 87 87 86 86 86 86 86 86 86 85 84 83 84 85 86 85 84 82 80 77 76 75 75 76 77 78 79 80 82 85 87 90 92 94 95 96 97 97 97 97 97 98 99 100 100 100 100 99 99 99 99 98 96 94 95 99 103 105 105 105 105 105 104 103 102 100 99 98 97 97 96 96 95 93 92 91 90 90
Wind_Direction
222 219 220 224 228 230 229 228 227 226 226 226 225 225 225 224 224 225 228 230 233 235 236 237 237 236 237 239 244 250 259 270 279 286 291 298 303 307 309 310 312 315 318 321 323 325 327 327 328 330 331 332 333 335 337 338 340 341 344 347 349 352 353 354 355 355 354 354 355 355 356 357 359 360 359 357 355 355 355 358 3 3 3 8 13
230 225 221 221 225 229 231 231 230 229 230 230 228 227 227 227 227 228 230 232 234 235 236 237 236 234 232 234 240 248 257 266 272 278 285 291 296 300 304 309 314 316 317 319 320 322 323 324 326 328 328 329 330 332 334 336 338 341 344 347 349 350 351 352 352 353 352 353 354 356 357 358 360 1 1 1 0 0 359 360 4 7 4 7 14
235 233 227 221 223 229 232 233 233 232 233 233 231 230 230 229 230 230 232 234 235 235 236 236 235 233 232 234 239 247 254 261 268 276 284 291 296 300 304 309 311 314 316 318 320 321 322 324 326 326 326 327 328 330 332 334 337 341 345 347 348 348 349 349 350 350 351 352 354 357 358 359 1 1 2 3 4 5 5 2 3 8 7 4 9
235 236 232 225 222 226 232 235 235 235 235 235 235 234 233 232 232 232 233 235 237 237 236 235 233 231 232 236 241 246 252 260 269 278 287 294 298 301 304 307 309 313 317 319 320 320 321 324 325 324 324 325 326 328 330 333 337 342 345 346 346 346 346 346 347 348 350 351 355 358 359 1 2 2 2 4 4 5 8 5 2 6 8 4 3
234 235 235 230 224 222 227 233 235 235 237 237 237 237 236 236 236 236 236 238 238 238 237 236 233 232 233 238 243 247 253 260 271 281 289 293 295 297 301 306 310 313 316 316 316 317 320 323 322 322 322 323 324 326 328 332 337 342 344 344 343 343 343 343 345 347 349 352 355 358 359 1 3 3 2 3 3 2 5 6 3 3 7 6 358
235 234 234 232 228 224 225 230 233 233 234 237 239 239 239 240 240 240 240 240 238 237 237 236 235 233 235 240 244 248 254 262 271 280 286 287 288 293 299 305 309 311 313 313 313 316 319 320 320 319 320 321 322 324 327 332 337 341 342 341 340 340 340 339 342 345 348 351 355 357 358 360 3 4 3 2 1 359 359 1 2 1 3 5 359
234 235 234 234 232 228 226 229 233 233 233 236 239 240 240 241 241 242 242 240 237 237 237 237 236 235 238 241 245 249 255 263 271 277 280 280 284 290 297 303 307 309 310 310 312 315 317 318 318 317 318 319 320 322 326 331 336 339 339 337 337 337 337 337 340 343 347 350 353 355 357 359 2 4 3 2 1 358 354 355 358 357 359 3 2
234 235 235 235 234 232 230 231 235 235 233 235 238 241 242 242 242 242 241 239 238 237 237 236 236 237 239 242 245 249 255 262 269 274 276 277 281 287 293 299 304 307 308 309 311 314 315 315 315 315 316 317 318 321 325 331 335 336 334 333 334 334 333 334 336 340 344 348 351 353 354 358 1 3 4 3 1 358 353 351 352 353 354 359 4
235 235 236 236 235 235 235 236 237 237 235 234 236 239 242 243 243 243 242 242 240 239 238 237 237 239 241 244 246 250 255 261 267 272 274 275 279 283 288 294 300 304 306 308 310 312 313 313 313 314 314 315 316 320 324 330 333 332 330 329 329 329 329 330 333 337 342 345 348 350 351 355 1 2 2 4 3 360 355 350 348 348 349 356 6
235 235 236 237 237 237 238 239 240 239 237 236 236 237 239 242 243 244 245 245 244 242 240 240 240 241 243 245 248 251 255 260 266 271 273 275 277 279 283 289 295 301 304 306 308 310 311 311 311 312 312 313 315 319 324 328 330 329 326 324 325 326 325 327 332 336 340 343 346 348 348 353 359 1 0 3 3 0 357 352 346 344 346 353 4
236 236 236 237 239 239 240 241 241 240 239 238 238 238 237 239 242 244 246 246 245 244 243 243 243 244 245 247 249 252 256 261 266 270 273 275 276 277 280 285 291 297 301 304 306 308 308 309 309 310 310 311 314 318 322 326 327 326 322 319 321 323 323 326 330 334 338 341 344 346 347 349 356 0 0 0 1 359 357 355 346 340 344 351 358
236 237 238 238 239 239 240 241 242 241 241 242 243 241 239 238 239 242 244 245 245 245 245 245 246 246 247 249 251 254 257 261 265 269 273 275 276 277 279 282 288 294 299 302 303 304 305 306 306 307 308 310 313 317 321 324 325 322 317 315 317 319 321 325 328 332 336 339 342 346 347 347 351 357 360 359 359 357 355 355 349 341 344 351 352
235 237 238 238 239 240 241 241 242 242 242 244 245 245 242 239 238 239 241 243 245 245 245 246 247 248 249 251 253 255 257 260 264 269 273 275 276 276 278 282 286 291 296 299 300 301 302 303 304 304 306 309 312 316 319 321 322 318 313 311 313 316 319 322 325 330 334 338 342 345 348 348 348 353 358 358 358 357 354 353 351 346 346 347 344
235 237 238 239 240 242 242 243 243 243 243 244 245 245 244 242 240 238 239 241 243 245 246 247 247 248 250 251 253 255 257 260 265 269 272 274 275 276 278 281 285 289 294 296 297 298 299 300 301 302 304 308 311 314 317 319 319 315 309 307 309 312 315 318 323 328 332 336 340 342 346 348 346 349 354 356 356 357 355 352 351 348 343 338 335
235 237 239 240 240 241 242 243 244 244 245 245 244 244 245 244 243 241 240 240 242 245 247 247 248 249 250 252 254 256 258 261 265 268 271 272 273 275 277 280 284 287 291 293 294 295 296 297 299 300 303 306 309 312 315 316 316 311 304 302 303 306 311 315 320 324 327 330 333 336 340 344 344 345 349 351 353 356 358 356 352 344 341 337 333
234 235 237 238 238 239 241 242 244 245 246 245 245 245 245 246 246 245 243 242 242 244 246 248 249 251 252 254 255 257 259 262 265 267 269 270 272 274 276 279 282 285 288 290 290 292 293 295 296 298 301 304 307 310 312 313 312 307 299 298 300 303 309 313 316 319 320 323 327 330 335 340 342 342 344 346 347 353 358 356 348 341 341 336 329
232 234 236 237 237 238 240 242 244 245 246 246 245 245 246 247 247 247 246 244 244 244 245 248 250 252 254 255 256 258 260 262 263 265 266 269 271 273 275 277 280 283 286 286 287 288 290 292 294 295 298 301 304 307 309 310 308 303 296 296 298 302 307 311 313 314 315 317 321 325 329 335 338 338 339 338 337 344 348 344 339 340 337 331 323
231 232 234 236 237 238 240 242 243 244 246 246 246 246 246 246 247 247 247 246 245 245 245 247 249 251 253 255 256 258 260 261 262 263 265 268 270 272 273 276 279 282 283 284 284 286 288 290 291 293 296 298 301 305 307 307 305 300 294 294 297 300 304 308 310 312 312 314 317 320 325 331 335 336 335 332 330 333 334 330 330 331 328 326 324
230 231 232 234 236 237 239 241 242 243 245 247 246 245 246 246 247 248 248 247 247 247 247 247 248 249 251 254 256 257 258 260 261 262 265 268 270 271 273 275 277 280 281 282 282 284 286 288 289 291 293 296 299 302 304 305 303 297 292 292 295 299 303 307 309 310 311 313 317 320 324 329 332 334 333 329 325 325 323 321 320 317 315 318 318
231 231 232 234 235 237 239 240 241 242 244 246 245 244 244 245 246 247 248 249 248 248 248 248 248 249 251 253 254 256 257 259 261 263 265 267 269 271 272 274 276 278 279 279 280 282 284 286 287 290 293 295 298 301 302 303 300 294 290 290 293 298 303 305 307 307 309 313 317 320 322 325 328 331 332 330 328 328 326 322 318 313 307 305 303
235 234 234 234 236 237 239 241 242 242 243 244 244 242 242 243 244 246 247 248 248 249 249 249 250 250 251 253 254 256 257 259 261 263 264 265 267 269 271 273 275 276 277 277 278 280 282 284 286 288 291 293 296 299 301 301 299 294 290 291 293 297 301 303 303 303 305 309 314 317 318 321 325 328 331 331 332 332 331 327 322 316 311 307 304
237 236 235 235 236 238 239 241 243 243 243 244 244 243 243 243 244 245 245 246 246 247 248 249 251 251 253 254 255 256 258 259 260 262 262 263 265 268 270 272 273 275 275 276 277 279 281 282 284 287 289 291 294 297 299 299 296 291 289 290 292 295 298 299 299 299 302 306 310 313 314 317 322 326 329 331 332 331 330 329 327 323 319 315 312
238 238 237 236 236 237 239 240 241 242 242 242 243 243 243 243 244 244 244 245 245 246 247 248 250 251 252 254 255 257 258 259 259 260 260 262 264 266 269 271 273 274 274 275 276 277 278 280 282 285 288 291 294 296 297 295 291 287 286 287 290 292 294 294 295 296 300 304 306 309 312 316 321 325 327 328 328 328 327 328 327 325 322 319 317
237 237 237 236 235 235 236 237 237 238 239 240 241 241 242 243 244 244 244 244 245 245 246 247 249 250 251 253 254 256 257 257 258 258 259 260 263 265 268 271 272 273 273 274 275 276 277 280 283 286 289 291 293 293 292 290 286 283 283 285 287 289 290 291 293 295 298 303 306 310 314 318 320 322 324 324 324 324 326 326 325 324 322 321 320
233 234 234 234 234 234 235 235 236 237 238 239 240 241 242 243 244 245 245 245 245 246 246 247 248 249 250 252 253 254 255 256 257 257 258 260 262 265 268 270 271 272 273 274 275 277 279 282 284 286 288 289 289 289 288 286 284 281 281 283 284 286 288 290 292 294 298 303 307 310 313 315 316 318 320 321 321 321 323 324 323 323 323 323 323
232 232 232 233 234 235 235 236 237 237 238 239 240 241 242 243 244 245 245 245 246 247 247 248 249 250 251 252 254 255 256 257 257 258 258 260 262 264 266 267 269 270 272 274 276 278 280 281 283 284 285 286 286 286 286 285 282 280 280 281 283 285 287 289 291 294 297 301 304 307 309 311 313 316 317 318 318 319 320 322 321 321 322 324 324
233 233 233 234 235 236 236 237 237 238 239 240 240 242 243 243 244 245 246 247 248 248 249 250 250 251 252 253 255 256 256 257 257 258 259 260 261 262 263 265 266 268 270 271 274 276 278 279 281 282 282 283 284 285 284 283 281 279 279 280 282 285 287 289 291 293 296 299 301 304 306 309 311 313 315 316 316 317 318 320 320 320 320 322 324
234 234 234 234 235 236 237 237 238 239 239 240 241 242 244 245 246 246 246 247 248 249 250 250 250 251 252 253 254 255 256 257 258 259 260 261 261 262 262 264 265 267 268 270 273 275 277 278 279 279 281 282 282 283 282 281 279 277 278 280 282 285 286 288 290 292 295 297 300 302 304 307 309 311 313 314 314 315 317 318 319 319 319 320 322
234 234 234 235 235 236 236 237 238 239 239 240 241 242 244 245 246 247 247 247 248 249 250 251 251 252 253 253 254 255 256 258 260 261 261 262 262 263 264 265 266 267 269 271 273 274 275 276 277 278 279 280 281 280 280 278 277 276 278 280 282 284 285 287 289 291 293 296 298 300 303 305 307 309 310 312 313 314 315 316 317 317 317 319 320
236 236 236 236 236 236 237 237 238 238 239 240 241 242 243 244 246 247 248 248 249 250 251 252 253 254 255 255 256 257 258 259 260 262 262 263 264 265 266 267 268 269 271 272 273 274 275 276 277 278 278 279 279 278 277 276 275 276 277 280 282 283 284 286 288 290 292 295 297 300 302 304 305 307 308 310 311 312 313 314 315 316 316 317 318
238 238 238 238 238 238 238 238 238 239 239 240 241 241 242 244 245 246 248 249 250 251 252 254 255 256 257 257 258 259 259 260 261 262 263 264 265 266 267 268 269 270 271 272 273 274 275 276 277 278 278 278 277 277 275 274 274 275 277 279 281 282 284 286 287 289 291 294 297 299 301 302 304 305 306 308 309 310 311 313 314 315 316 316 317
239 239 239 239 239 239 239 240 240 240 240 240 241 241 242 243 245 246 247 248 250 251 253 255 256 257 258 258 259 260 261 261 262 263 264 265 265 266 267 268 269 270 271 272 273 275 276 278 278 278 277 277 276 275 274 274 274 275 277 278 280 282 284 285 287 288 291 294 296 299 300 301 303 304 305 306 307 309 310 311 313 314 314 314 315
239 240 240 240 240 240 240 240 240 240 241 241 241 242 243 244 245 246 247 248 249 251 252 254 256 257 258 259 259 260 261 262 263 263 264 265 265 266 267 268 269 270 271 272 274 277 278 279 278 277 276 275 274 273 273 274 274 275 277 278 280 282 284 285 286 288 290 293 296 298 299 301 302 303 304 305 306 307 309 310 311 312 313 312 313
237 239 240 241 241 241 241 241 241 241 241 241 241 242 243 243 245 246 247 248 249 251 252 254 255 256 258 258 259 260 261 262 262 263 264 265 265 266 267 268 269 270 271 273 276 278 279 278 277 276 274 272 272 272 273 273 274 275 277 279 281 283 284 285 286 288 290 293 295 297 298 300 301 301 302 304 305 306 307 308 310 311 311 311 311
238 239 240 241 241 241 241 242 242 242 242 241 242 242 242 243 244 245 246 248 249 251 252 254 255 256 257 259 260 260 261 262 263 263 264 264 265 267 268 269 270 271 272 273 274 273 273 274 275 274 273 272 271 271 272 273 274 275 277 279 281 283 284 285 287 288 290 292 294 296 298 299 300 300 301 302 304 305 306 307 308 309 309 309 310
240 241 241 241 241 240 241 241 242 243 243 243 243 243 243 243 244 245 246 247 249 250 252 253 255 256 257 258 259 260 261 262 263 264 265 265 266 267 268 270 271 272 273 273 272 270 270 270 271 271 272 272 272 272 272 273 274 276 278 279 281 283 284 285 287 288 290 292 294 295 297 298 299 300 301 302 303 304 305 306 307 307 306 307 308
242 242 241 241 241 241 240 240 241 242 243 244 244 244 244 245 245 246 247 248 250 251 252 253 255 256 257 258 260 261 262 263 264 265 267 268 268 269 270 271 273 274 273 273 271 270 269 268 268 269 270 271 272 272 273 274 275 276 278 279 281 283 284 285 287 288 290 292 293 295 296 297 298 299 300 301 302 303 305 306 307 306 306 306 307
242 242 242 242 242 242 241 241 242 243 243 244 245 245 246 247 247 248 249 249 250 251 252 253 255 257 259 260 262 264 266 267 268 268 269 269 270 270 270 271 271 272 272 272 271 269 268 268 268 269 270 271 272 273 273 274 275 277 278 279 281 282 284 285 287 288 289 291 292 294 295 297 297 298 299 300 301 303 304 305 305 305 306 307 308
243 243 242 242 243 244 244 244 244 244 245 246 246 247 248 248 249 249 250 251 252 253 255 257 259 261 264 266 267 269 271 272 272 272 271 270 269 269 269 268 267 266 268 269 270 271 270 271 271 272 272 272 273 273 274 275 276 277 278 279 281 282 284 285 286 287 288 290 291 293 295 296 297 298 298 299 301 302 304 304 304 304 305 306 308
244 244 243 243 244 245 246 246 246 247 248 248 249 250 250 251 251 252 252 253 255 257 259 262 265 267 269 270 271 273 276 277 276 273 271 270 269 269 269 268 267 266 267 268 269 270 271 271 273 273 274 273 273 274 275 276 276 278 279 280 281 282 283 284 285 286 288 289 291 292 294 295 296 297 298 299 301 302 303 303 303 304 304 306 308
246 245 244 244 245 246 247 248 249 250 251 251 252 252 253 253 254 255 256 259 261 263 266 270 272 274 274 273 273 273 272 269 268 267 267 268 269 269 269 268 268 267 267 268 269 270 271 271 272 273 274 274 274 275 276 277 278 279 280 281 282 282 283 284 285 287 288 289 291 292 293 294 295 297 298 299 299 300 302 302 303 303 304 305 307
246 246 246 245 245 246 247 248 250 251 252 253 254 254 254 255 255 256 259 262 264 265 265 265 265 264 265 266 268 268 265 262 261 263 265 267 269 270 270 269 269 269 269 269 270 270 271 272 273 273 274 275 276 277 277 278 279 279 280 281 282 283 284 285 286 287 289 290 291 292 293 294 295 296 297 298 298 298 300 301 302 302 304 305 305
244 245 245 246 247 248 248 248 249 250 251 252 253 254 254 255 254 253 252 252 253 254 254 252 251 252 253 254 256 258 259 260 261 263 265 267 268 269 270 270 270 271 271 272 272 272 273 273 274 275 276 276 277 277 278 278 279 279 280 281 282 283 285 286 287 288 289 290 291 293 294 295 295 296 297 297 297 297 297 299 300 302 303 303 304
241 241 243 245 247 248 249 249 249 250 250 251 252 253 253 254 253 252 249 247 247 249 250 251 251 251 251 252 253 255 257 259 261 262 264 265 267 269 271 272 272 272 273 274 274 274 274 274 275 275 276 276 276 277 278 278 279 280 281 282 283 284 285 286 287 289 290 291 292 293 294 295 295 296 296 297 296 296 297 298 300 301 301 301 302
239 239 240 243 245 248 249 249 250 251 252 252 253 253 253 253 253 252 251 250 250 250 251 252 253 253 254 254 256 257 259 260 261 263 265 267 269 271 272 273 273 273 273 273 273 274 274 274 275 275 276 276 277 278 279 280 281 282 282 283 284 285 286 287 288 289 291 292 293 293 294 295 295 295 296 296 296 297 298 299 300 300 300 300 300
238 239 240 242 244 245 247 248 250 251 252 254 254 255 255 255 255 254 254 253 253 253 253 253 254 255 256 256 257 259 261 262 264 265 267 269 270 272 272 273 273 273 273 273 273 274 274 275 275 276 277 277 278 279 280 281 281 282 283 283 284 285 286 288 289 290 291 292 292 293 294 295 294 295 296 297 297 298 299 299 299 300 300 300 299
238 239 240 242 243 243 244 246 248 250 252 253 255 255 256 256 257 257 257 258 258 257 257 256 256 256 256 257 258 259 260 262 264 266 267 268 270 270 271 272 273 273 273 274 274 275 275 276 277 277 278 278 279 280 280 281 281 282 283 284 285 286 287 288 289 289 290 290 291 292 294 295 295 295 296 297 297 298 298 299 299 299 300 300 299
240 240 241 242 242 243 244 245 247 248 250 251 253 254 255 256 257 258 259 261 262 262 262 261 261 260 260 260 260 261 261 262 264 265 266 268 269 270 270 271 272 273 273 274 274 275 276 276 277 278 278 279 279 280 280 281 282 282 283 284 285 286 287 287 288 288 288 289 291 293 294 295 295 295 296 296 297 298 298 299 299 300 300 300 301
241 241 241 241 242 243 244 245 246 247 249 250 252 253 255 256 256 257 257 259 261 262 263 263 264 264 265 265 265 265 265 265 265 266 267 268 269 270 270 271 271 272 272 273 274 274 275 276 277 278 278 279 279 280 280 280 281 281 282 283 284 284 285 287 288 288 289 290 292 294 295 295 295 295 296 296 297 297 298 299 300 301 301 301 302
241 241 242 242 243 244 245 246 246 248 249 250 251 252 253 254 255 255 255 256 256 258 259 261 263 265 267 268 268 268 267 267 267 267 268 268 269 269 269 270 270 270 271 271 272 273 274 275 276 276 277 277 278 279 279 280 280 280 281 281 281 282 285 288 290 291 291 292 293 294 294 295 295 295 295 296 297 298 298 299 300 301 301 301 301
241 242 242 243 244 245 246 246 247 248 250 251 252 252 253 253 254 254 254 255 256 257 259 260 260 262 264 266 267 267 267 267 267 267 267 267 268 268 268 268 269 269 270 270 271 272 273 274 275 275 276 276 277 278 279 281 281 281 281 280 281 283 288 291 292 292 293 293 293 294 294 295 295 295 296 297 297 298 298 299 299 300 300 300 300
Height
10971 10972 10974 10976 10978 10979 10981 10983 10985 10986 10987 10988 10990 10991 10992 10994 10994 10995 10996 10997 10999 11000 11001 11002 11003 11004 11005 11006 11008 11008 11009 11010 11010 11010 11011 11011 11011 11010 11010 11010 11009 11009 11009 11008 11007 11006 11005 11003 11002 11001 10999 10997 10996 10994 10993 10991 10989 10987 10984 10982 10979 10977 10975 10973 10972 10970 10968 10966 10964 10961 10959 10956 10953 10950 10947 10943 10941 10939 10937 10935 10933 10931 10929 10927 10926
10968 10970 10971 10973 10975 10976 10979 10981 10983 10984 10985 10987 10988 10989 10990 10991 10992 10993 10995 10996 10997 10998 10999 11000 11002 11003 11004 11005 11006 11007 11008 11008 11009 11009 11009 11010 11010 11010 11009 11009 11009 11008 11008 11007 11006 11005 11004 11002 11001 10999 10998 10996 10994 10993 10992 10990 10988 10985 10983 10981 10978 10976 10974 10973 10971 10969 10967 10966 10963 10961 10958 10956 10953 10950 10947 10944 10941 10939 10937 10935 10934 10932 10929 10928 10927
10966 10969 10970 10971 10973 10974 10976 10978 10980 10982 10983 10985 10986 10987 10988 10989 10990 10991 10993 10994 10995 10996 10997 10999 11000 11002 11003 11004 11005 11005 11006 11007 11007 11007 11008 11008 11008 11008 11008 11008 11008 11007 11006 11006 11005 11004 11002 11001 10999 10998 10996 10995 10993 10991 10990 10988 10986 10984 10982 10979 10977 10975 10974 10972 10970 10968 10967 10965 10963 10960 10957 10954 10951 10949 10946 10943 10940 10938 10936 10934 10933 10931 10929 10928 10927
10964 10966 10968 10969 10971 10972 10973 10975 10977 10979 10981 10983 10984 10985 10986 10987 10988 10989 10990 10991 10993 10994 10996 10997 10998 11000 11001 11002 11003 11004 11005 11005 11005 11006 11006 11006 11006 11007 11007 11007 11007 11006 11005 11004 11003 11002 11001 11000 10998 10996 10995 10993 10991 10990 10988 10987 10985 10983 10980 10978 10976 10974 10972 10970 10969 10967 10965 10963 10961 10959 10956 10953 10950 10947 10945 10942 10939 10937 10935 10934 10932 10931 10930 10928 10926
10960 10962 10964 10967 10968 10969 10970 10971 10973 10975 10978 10980 10981 10983 10984 10985 10986 10987 10988 10989 10991 10992 10993 10995 10997 10998 10999 11000 11001 11002 11003 11003 11004 11004 11004 11004 11004 11005 11006 11006 11005 11005 11004 11002 11001 11000 10999 10998 10997 10995 10993 10992 10990 10988 10986 10985 10983 10981 10979 10977 10975 10973 10971 10969 10968 10966 10964 10962 10960 10958 10955 10953 10950 10947 10944 10942 10939 10936 10935 10933 10931 10930 10929 10928 10927
10956 10958 10961 10963 10965 10966 10966 10967 10969 10972 10975 10977 10978 10980 10981 10983 10984 10986 10987 10988 10989 10990 10991 10993 10994 10996 10997 10998 10999 11000 11001 11001 11002 11002 11002 11002 11002 11003 11003 11004 11003 11003 11002 11001 11000 10999 10998 10997 10995 10993 10992 10990 10988 10986 10985 10983 10981 10979 10978 10976 10974 10972 10970 10968 10967 10966 10964 10962 10960 10958 10955 10952 10949 10947 10944 10942 10939 10936 10934 10932 10931 10929 10928 10928 10926
10953 10954 10957 10959 10961 10962 10963 10964 10965 10969 10972 10974 10975 10977 10978 10980 10982 10983 10985 10986 10987 10988 10989 10991 10992 10994 10995 10996 10997 10997 10998 10999 11000 11000 11000 11000 11000 11001 11001 11001 11001 11000 11000 10999 10998 10997 10996 10995 10993 10992 10990 10989 10987 10985 10983 10982 10980 10978 10977 10975 10973 10971 10968 10966 10965 10965 10964 10962 10960 10958 10956 10953 10950 10947 10945 10942 10939 10937 10934 10931 10930 10928 10927 10926 10925
10948 10951 10953 10954 10956 10959 10960 10961 10963 10966 10968 10971 10972 10973 10975 10977 10979 10980 10982 10983 10984 10986 10987 10989 10990 10991 10992 10993 10994 10995 10996 10997 10997 10998 10998 10999 10999 10999 10998 10998 10998 10997 10997 10996 10996 10995 10994 10993 10992 10990 10988 10987 10985 10983 10982 10980 10979 10977 10975 10974 10972 10970 10968 10965 10964 10963 10963 10961 10959 10958 10956 10954 10951 10949 10946 10943 10940 10937 10934 10932 10929 10927 10925 10924 10924
10944 10947 10949 10950 10952 10955 10958 10959 10961 10963 10965 10967 10968 10970 10972 10974 10976 10977 10979 10980 10982 10984 10985 10986 10987 10988 10989 10991 10992 10993 10994 10995 10995 10996 10996 10996 10996 10996 10996 10996 10995 10995 10994 10993 10993 10992 10992 10991 10990 10988 10986 10985 10983 10981 10980 10978 10977 10975 10974 10973 10972 10970 10968 10965 10963 10962 10961 10960 10958 10956 10954 10953 10951 10948 10946 10944 10941 10938 10935 10932 10929 10926 10924 10923 10923
10941 10942 10944 10946 10949 10952 10955 10957 10958 10960 10961 10962 10964 10966 10969 10971 10973 10974 10976 10978 10979 10981 10982 10983 10984 10985 10987 10988 10988 10990 10991 10992 10993 10993 10993 10994 10994 10994 10993 10993 10992 10992 10991 10991 10990 10989 10989 10988 10987 10986 10984 10982 10981 10979 10977 10976 10975 10973 10972 10971 10970 10969 10967 10964 10962 10960 10959 10958 10957 10955 10953 10951 10950 10948 10945 10943 10941 10938 10936 10933 10930 10926 10924 10922 10921
10937 10938 10941 10943 10946 10949 10951 10953 10955 10956 10957 10958 10960 10963 10965 10968 10970 10971 10973 10975 10976 10978 10979 10980 10981 10983 10984 10984 10985 10986 10988 10989 10990 10990 10990 10990 10990 10990 10990 10990 10990 10989 10989 10988 10988 10987 10986 10985 10984 10983 10982 10980 10978 10977 10975 10973 10972 10971 10970 10969 10968 10967 10965 10962 10960 10958 10956 10956 10955 10954 10951 10949 10949 10947 10945 10942 10940 10938 10936 10934 10930 10927 10925 10922 10920
10933 10935 10938 10941 10943 10944 10946 10949 10951 10952 10954 10955 10957 10959 10961 10964 10966 10967 10969 10971 10973 10974 10975 10977 10979 10980 10981 10981 10982 10983 10984 10985 10986 10986 10987 10987 10987 10987 10987 10987 10986 10986 10986 10986 10985 10984 10984 10983 10982 10980 10979 10977 10976 10974 10972 10971 10969 10968 10967 10966 10965 10964 10962 10960 10958 10956 10954 10953 10952 10952 10950 10947 10946 10945 10944 10941 10939 10937 10935 10933 10931 10928 10925 10923 10919
10929 10932 10935 10937 10938 10940 10942 10944 10946 10948 10950 10952 10953 10955 10957 10959 10961 10963 10965 10967 10969 10970 10971 10973 10975 10976 10977 10977 10979 10980 10980 10981 10982 10982 10983 10983 10983 10983 10983 10983 10983 10983 10983 10982 10982 10981 10981 10980 10979 10978 10976 10975 10973 10971 10969 10968 10967 10965 10964 10963 10963 10962 10960 10958 10955 10954 10951 10949 10949 10949 10948 10946 10944 10943 10942 10940 10938 10936 10934 10932 10931 10928 10925 10923 10920
10926 10929 10931 10933 10934 10937 10939 10940 10942 10944 10946 10948 10950 10951 10952 10954 10956 10958 10960 10963 10964 10965 10967 10970 10971 10972 10973 10974 10975 10975 10976 10977 10978 10978 10979 10978 10978 10979 10979 10980 10980 10979 10979 10979 10978 10978 10978 10977 10976 10975 10973 10972 10970 10968 10967 10965 10964 10963 10961 10960 10960 10960 10958 10956 10954 10952 10949 10947 10946 10945 10946 10945 10942 10941 10940 10938 10937 10935 10933 10932 10930 10928 10925 10922 10919
10923 10926 10927 10929 10931 10933 10935 10936 10938 10940 10942 10943 10945 10945 10947 10949 10951 10953 10956 10957 10959 10961 10963 10965 10966 10967 10969 10970 10971 10971 10972 10973 10973 10974 10974 10974 10974 10975 10975 10976 10976 10976 10976 10975 10975 10974 10974 10973 10973 10972 10970 10969 10967 10965 10963 10962 10961 10959 10958 10957 10957 10957 10956 10953 10951 10950 10948 10946 10945 10943 10943 10943 10941 10939 10938 10937 10936 10934 10933 10931 10929 10927 10925 10921 10919
10919 10921 10922 10925 10927 10929 10930 10932 10934 10936 10937 10938 10939 10940 10942 10944 10946 10949 10951 10952 10954 10956 10957 10959 10961 10963 10964 10965 10966 10967 10968 10969 10969 10969 10970 10969 10970 10970 10971 10971 10971 10971 10972 10971 10971 10970 10970 10970 10969 10968 10967 10966 10964 10962 10961 10959 10958 10956 10955 10954 10954 10954 10953 10950 10949 10948 10946 10944 10943 10941 10940 10940 10939 10937 10936 10935 10934 10933 10932 10931 10928 10927 10925 10921 10919
10914 10916 10918 10920 10922 10924 10926 10928 10930 10932 10933 10933 10934 10936 10938 10940 10942 10944 10946 10947 10948 10950 10952 10954 10956 10958 10959 10960 10961 10962 10963 10964 10964 10965 10965 10965 10966 10966 10966 10966 10966 10967 10967 10967 10966 10966 10966 10965 10965 10964 10963 10962 10961 10960 10958 10956 10955 10953 10952 10950 10950 10950 10949 10947 10945 10944 10943 10942 10940 10939 10937 10937 10936 10935 10934 10932 10931 10932 10933 10931 10928 10927 10926 10922 10914
10908 10911 10913 10916 10918 10920 10922 10924 10926 10927 10928 10929 10930 10932 10934 10936 10938 10939 10941 10942 10943 10945 10947 10949 10951 10952 10953 10954 10955 10957 10959 10959 10960 10960 10961 10961 10961 10961 10961 10961 10961 10962 10962 10962 10961 10961 10961 10961 10961 10960 10960 10959 10958 10957 10955 10953 10951 10950 10948 10946 10946 10946 10946 10944 10942 10940 10939 10937 10936 10935 10933 10933 10932 10931 10930 10928 10927 10928 10930 10929 10928 10927 10926 10920 10910
10902 10905 10908 10911 10913 10915 10918 10919 10921 10923 10924 10925 10926 10927 10929 10931 10933 10934 10935 10937 10938 10940 10942 10943 10945 10946 10947 10949 10951 10952 10953 10954 10955 10955 10956 10956 10955 10956 10956 10956 10956 10957 10958 10956 10955 10956 10956 10956 10956 10955 10955 10954 10954 10953 10952 10950 10948 10946 10945 10943 10942 10942 10941 10939 10938 10936 10934 10932 10930 10929 10927 10927 10927 10927 10926 10924 10922 10922 10922 10922 10923 10921 10918 10914 10907
10896 10900 10903 10906 10908 10910 10913 10915 10917 10918 10920 10921 10922 10923 10924 10925 10927 10928 10929 10931 10933 10935 10936 10937 10939 10940 10942 10943 10945 10946 10948 10949 10949 10950 10951 10951 10950 10950 10950 10950 10951 10953 10953 10951 10950 10950 10951 10951 10951 10950 10949 10949 10949 10948 10947 10946 10944 10943 10942 10940 10938 10937 10937 10935 10933 10932 10930 10927 10925 10923 10921 10921 10921 10921 10920 10918 10916 10916 10915 10914 10913 10909 10905 10903 10899
10891 10895 10898 10900 10903 10906 10908 10910 10913 10914 10915 10917 10917 10918 10919 10920 10921 10922 10924 10926 10927 10929 10930 10931 10933 10935 10936 10938 10939 10940 10942 10944 10944 10945 10946 10946 10945 10944 10944 10944 10946 10947 10947 10946 10945 10945 10946 10946 10946 10945 10944 10944 10943 10943 10942 10941 10940 10938 10937 10936 10934 10933 10932 10930 10929 10928 10926 10923 10921 10918 10917 10917 10916 10914 10913 10911 10909 10908 10908 10908 10906 10902 10897 10894 10890
10886 10889 10892 10895 10898 10901 10904 10906 10908 10910 10911 10912 10912 10913 10914 10915 10916 10917 10918 10920 10921 10923 10924 10926 10927 10929 10931 10932 10933 10934 10936 10938 10939 10940 10940 10940 10940 10939 10938 10938 10940 10942 10941 10940 10940 10940 10941 10940 10940 10940 10940 10939 10938 10938 10937 10936 10934 10933 10932 10931 10930 10929 10928 10926 10925 10923 10921 10919 10917 10915 10913 10912 10911 10909 10907 10904 10902 10901 10901 10900 10899 10897 10893 10890 10886
10881 10884 10886 10890 10893 10896 10898 10901 10903 10904 10905 10906 10907 10908 10909 10910 10911 10912 10913 10914 10915 10917 10919 10920 10922 10923 10925 10926 10926 10928 10930 10932 10934 10935 10935 10935 10934 10933 10932 10932 10934 10935 10935 10934 10935 10935 10935 10935 10935 10935 10934 10933 10932 10932 10931 10930 10929 10928 10928 10927 10925 10925 10924 10922 10920 10918 10917 10914 10913 10911 10909 10906 10905 10903 10902 10900 10898 10896 10895 10893 10891 10890 10888 10885 10881
10875 10878 10880 10883 10886 10889 10891 10893 10895 10897 10898 10900 10901 10902 10903 10905 10905 10906 10907 10909 10910 10911 10913 10915 10916 10917 10918 10920 10920 10922 10924 10926 10928 10929 10929 10929 10929 10928 10927 10927 10928 10929 10928 10928 10929 10930 10929 10929 10928 10928 10927 10927 10926 10925 10925 10925 10925 10924 10923 10922 10921 10920 10919 10917 10915 10913 10912 10910 10908 10906 10903 10900 10899 10898 10897 10896 10894 10892 10890 10888 10885 10882 10881 10879 10875
10868 10870 10873 10876 10878 10881 10883 10886 10888 10890 10892 10894 10896 10897 10898 10899 10900 10901 10902 10903 10904 10906 10907 10909 10910 10911 10912 10914 10915 10917 10919 10920 10921 10922 10923 10924 10923 10923 10922 10922 10922 10922 10921 10921 10922 10923 10922 10922 10921 10921 10921 10921 10920 10920 10920 10920 10920 10919 10918 10917 10916 10915 10914 10912 10910 10908 10906 10905 10902 10900 10898 10896 10894 10893 10893 10891 10889 10888 10886 10885 10881 10877 10874 10873 10869
10861 10863 10866 10869 10871 10874 10877 10880 10882 10884 10887 10889 10890 10891 10893 10894 10895 10896 10897 10898 10899 10901 10902 10904 10905 10906 10907 10909 10910 10912 10914 10914 10915 10915 10917 10918 10918 10918 10918 10917 10917 10916 10915 10915 10916 10916 10916 10915 10915 10915 10915 10915 10915 10915 10915 10915 10914 10913 10912 10911 10910 10909 10908 10906 10905 10903 10901 10899 10897 10895 10894 10892 10890 10888 10887 10885 10884 10882 10882 10881 10878 10873 10869 10868 10864
10855 10858 10861 10863 10866 10868 10871 10874 10876 10878 10881 10883 10885 10886 10887 10888 10890 10891 10892 10893 10894 10896 10897 10899 10900 10901 10903 10904 10906 10907 10907 10907 10908 10909 10911 10912 10912 10912 10912 10912 10912 10911 10911 10910 10911 10911 10910 10910 10910 10910 10910 10909 10909 10909 10909 10908 10908 10907 10906 10906 10905 10903 10902 10901 10899 10898 10896 10894 10892 10890 10888 10887 10885 10883 10881 10879 10877 10876 10875 10874 10873 10869 10865 10862 10859
10850 10853 10856 10858 10860 10862 10865 10867 10870 10872 10875 10877 10879 10880 10882 10883 10884 10885 10887 10888 10889 10891 10892 10893 10895 10896 10898 10899 10901 10901 10901 10901 10902 10903 10905 10905 10905 10906 10906 10906 10906 10906 10906 10906 10906 10906 10905 10905 10904 10904 10904 10903 10903 10903 10902 10902 10901 10901 10900 10899 10898 10897 10896 10895 10894 10892 10891 10889 10887 10885 10883 10881 10880 10878 10876 10873 10871 10869 10868 10867 10866 10863 10860 10856 10853
10846 10848 10850 10852 10854 10857 10859 10861 10863 10866 10869 10871 10873 10875 10876 10877 10878 10880 10881 10882 10883 10885 10886 10888 10889 10891 10893 10894 10895 10895 10895 10896 10897 10897 10898 10898 10899 10899 10899 10899 10900 10900 10900 10900 10900 10900 10899 10899 10898 10898 10898 10898 10897 10896 10896 10895 10894 10894 10893 10893 10892 10891 10890 10889 10888 10886 10885 10884 10882 10880 10878 10876 10874 10872 10870 10868 10865 10863 10861 10860 10859 10857 10854 10850 10847
10841 10843 10845 10847 10849 10851 10853 10855 10857 10860 10862 10864 10866 10868 10870 10871 10872 10874 10875 10876 10878 10879 10880 10882 10884 10886 10887 10888 10889 10889 10890 10891 10891 10891 10891 10891 10892 10892 10892 10893 10893 10893 10893 10893 10893 10893 10893 10893 10893 10893 10892 10892 10891 10890 10889 10888 10888 10888 10887 10887 10886 10885 10884 10883 10882 10880 10879 10877 10876 10874 10872 10870 10868 10866 10864 10862 10860 10857 10855 10853 10851 10849 10847 10844 10841
10837 10838 10840 10841 10843 10845 10847 10849 10851 10853 10855 10858 10860 10861 10863 10865 10866 10868 10869 10871 10872 10874 10875 10876 10878 10880 10881 10881 10882 10883 10884 10884 10885 10885 10885 10885 10885 10886 10886 10886 10886 10886 10886 10887 10887 10887 10887 10887 10887 10887 10886 10885 10885 10884 10883 10882 10881 10881 10881 10880 10879 10878 10877 10877 10875 10874 10872 10871 10869 10867 10865 10863 10861 10859 10857 10856 10854 10851 10848 10846 10843 10841 10838 10835 10833
10832 10833 10835 10836 10838 10839 10841 10843 10845 10847 10849 10851 10853 10855 10857 10858 10860 10862 10863 10865 10867 10868 10869 10870 10871 10873 10874 10875 10876 10877 10877 10878 10878 10878 10879 10879 10879 10879 10880 10880 10880 10880 10880 10881 10881 10881 10882 10882 10881 10881 10880 10879 10878 10877 10876 10876 10875 10874 10874 10873 10873 10872 10871 10870 10868 10867 10866 10864 10862 10860 10858 10855 10854 10852 10849 10848 10847 10845 10842 10839 10836 10834 10831 10828 10824
10826 10828 10829 10831 10833 10834 10836 10837 10839 10841 10843 10845 10846 10848 10850 10852 10854 10855 10857 10859 10860 10862 10863 10864 10865 10866 10867 10868 10869 10870 10871 10871 10871 10871 10872 10872 10872 10873 10873 10873 10874 10874 10874 10875 10876 10876 10876 10875 10874 10873 10872 10872 10871 10870 10870 10869 10868 10867 10866 10866 10866 10865 10864 10863 10861 10860 10859 10857 10855 10853 10850 10848 10846 10844 10841 10839 10838 10837 10834 10832 10830 10827 10825 10821 10818
10821 10822 10824 10825 10827 10829 10830 10832 10834 10835 10837 10838 10840 10842 10844 10845 10847 10849 10850 10852 10854 10856 10857 10858 10859 10860 10861 10862 10863 10864 10864 10864 10864 10864 10865 10865 10865 10866 10866 10867 10867 10867 10868 10869 10871 10871 10869 10867 10867 10866 10865 10864 10864 10863 10863 10862 10861 10860 10859 10859 10859 10858 10857 10855 10854 10853 10851 10850 10847 10845 10843 10841 10838 10836 10834 10831 10830 10828 10826 10823 10822 10820 10817 10814 10811
10816 10817 10819 10820 10822 10824 10825 10827 10828 10830 10831 10833 10834 10836 10837 10839 10841 10842 10844 10846 10848 10850 10851 10852 10853 10854 10855 10856 10857 10857 10858 10858 10858 10857 10858 10858 10858 10859 10860 10860 10861 10861 10861 10863 10865 10864 10861 10861 10861 10861 10858 10857 10857 10856 10856 10855 10854 10854 10853 10853 10852 10850 10849 10847 10846 10845 10843 10841 10839 10837 10835 10832 10830 10827 10825 10823 10821 10820 10818 10815 10812 10811 10809 10807 10803
10810 10812 10813 10815 10816 10818 10820 10821 10823 10824 10826 10827 10829 10830 10832 10833 10835 10837 10839 10840 10842 10844 10845 10846 10847 10847 10848 10849 10850 10851 10851 10851 10851 10851 10851 10851 10852 10853 10854 10854 10854 10855 10855 10856 10858 10857 10856 10855 10854 10853 10851 10850 10850 10849 10849 10849 10848 10847 10847 10846 10844 10843 10841 10840 10838 10836 10835 10833 10831 10828 10826 10824 10821 10818 10816 10814 10811 10810 10808 10806 10803 10801 10799 10797 10795
10803 10805 10807 10808 10810 10813 10814 10816 10817 10819 10820 10822 10823 10825 10826 10828 10830 10832 10833 10835 10837 10838 10839 10840 10840 10841 10842 10843 10843 10844 10845 10846 10846 10845 10845 10846 10847 10848 10849 10849 10849 10848 10847 10848 10849 10849 10848 10847 10846 10844 10844 10843 10843 10843 10842 10842 10841 10840 10839 10838 10836 10835 10833 10832 10830 10828 10826 10824 10822 10819 10817 10815 10812 10810 10807 10805 10802 10800 10798 10796 10793 10789 10787 10786 10784
10796 10798 10800 10802 10804 10806 10808 10810 10811 10813 10814 10816 10818 10820 10822 10824 10825 10827 10828 10830 10831 10832 10833 10833 10834 10835 10837 10838 10838 10840 10840 10841 10841 10840 10840 10840 10840 10841 10843 10845 10844 10841 10839 10838 10838 10839 10839 10838 10837 10837 10837 10836 10836 10836 10835 10834 10833 10832 10831 10829 10828 10826 10825 10823 10821 10819 10817 10815 10813 10811 10808 10806 10803 10801 10798 10796 10793 10791 10788 10786 10783 10780 10776 10774 10771
10788 10790 10793 10795 10797 10799 10801 10803 10805 10806 10808 10810 10812 10814 10817 10819 10820 10822 10823 10825 10826 10827 10828 10830 10831 10832 10833 10834 10834 10835 10835 10835 10834 10833 10832 10832 10833 10833 10835 10836 10836 10833 10831 10829 10829 10829 10829 10829 10829 10829 10829 10829 10828 10828 10827 10826 10825 10823 10822 10821 10819 10818 10816 10814 10812 10810 10808 10807 10805 10802 10800 10797 10794 10791 10789 10786 10784 10781 10779 10775 10773 10770 10767 10764 10761
10780 10782 10785 10787 10789 10791 10793 10795 10797 10799 10801 10803 10806 10808 10810 10812 10814 10816 10818 10820 10822 10824 10825 10827 10828 10829 10829 10829 10829 10830 10831 10829 10826 10823 10821 10822 10823 10825 10826 10827 10827 10825 10824 10823 10821 10821 10821 10821 10821 10821 10821 10820 10819 10818 10817 10816 10815 10814 10813 10812 10810 10808 10806 10804 10802 10800 10799 10797 10795 10793 10790 10788 10785 10782 10779 10776 10774 10772 10769 10766 10762 10760 10757 10755 10752
10771 10774 10776 10779 10781 10783 10785 10787 10789 10791 10793 10796 10798 10801 10803 10805 10808 10811 10814 10816 10819 10820 10822 10825 10826 10825 10822 10819 10820 10824 10824 10820 10815 10814 10813 10812 10813 10815 10816 10817 10817 10817 10816 10815 10815 10814 10814 10813 10813 10812 10811 10810 10809 10809 10808 10807 10806 10805 10803 10802 10800 10798 10796 10794 10792 10790 10788 10787 10785 10783 10780 10778 10775 10772 10770 10767 10765 10762 10760 10756 10753 10749 10747 10745 10742
10763 10766 10768 10771 10774 10776 10778 10780 10781 10783 10785 10787 10790 10793 10795 10797 10801 10807 10812 10814 10814 10814 10816 10819 10819 10817 10813 10811 10812 10813 10812 10808 10805 10805 10805 10804 10804 10806 10806 10807 10807 10807 10807 10807 10807 10806 10805 10804 10803 10803 10802 10801 10800 10799 10798 10797 10796 10794 10793 10791 10790 10788 10786 10783 10781 10779 10777 10775 10774 10772 10769 10767 10764 10762 10759 10757 10755 10753 10751 10748 10744 10740 10737 10734 10732
10756 10758 10760 10762 10765 10767 10769 10772 10774 10775 10777 10779 10781 10784 10787 10789 10793 10800 10805 10805 10803 10802 10802 10804 10805 10803 10803 10803 10803 10801 10800 10798 10797 10797 10797 10797 10797 10797 10797 10797 10797 10797 10797 10798 10797 10796 10795 10794 10794 10793 10792 10791 10790 10789 10787 10786 10785 10783 10782 10781 10779 10777 10775 10772 10770 10767 10766 10764 10762 10761 10758 10756 10753 10750 10747 10745 10743 10742 10741 10739 10736 10733 10729 10725 10722
10748 10750 10752 10754 10756 10758 10760 10763 10765 10767 10769 10771 10773 10775 10777 10780 10783 10788 10792 10793 10792 10791 10790 10791 10792 10792 10793 10793 10792 10790 10789 10789 10788 10788 10788 10788 10788 10788 10788 10788 10788 10788 10788 10787 10787 10786 10785 10784 10783 10782 10781 10780 10779 10778 10776 10775 10773 10772 10771 10769 10768 10766 10764 10761 10758 10756 10754 10753 10751 10749 10746 10744 10741 10738 10735 10733 10730 10729 10728 10727 10725 10722 10719 10716 10713
10739 10741 10743 10745 10747 10749 10751 10754 10756 10757 10759 10761 10763 10765 10767 10769 10773 10776 10779 10781 10783 10783 10782 10782 10783 10783 10783 10783 10782 10781 10780 10779 10778 10778 10779 10779 10779 10779 10779 10778 10778 10778 10777 10777 10776 10775 10774 10772 10771 10771 10770 10769 10767 10766 10765 10764 10762 10760 10759 10757 10756 10754 10752 10750 10747 10746 10744 10741 10738 10736 10734 10732 10729 10726 10722 10719 10716 10715 10714 10713 10712 10710 10706 10703 10700
10730 10732 10734 10736 10738 10740 10742 10744 10746 10747 10749 10751 10752 10754 10756 10758 10761 10765 10768 10770 10771 10772 10773 10773 10774 10774 10774 10774 10773 10773 10772 10771 10770 10770 10770 10769 10769 10769 10768 10767 10767 10767 10766 10765 10764 10763 10762 10761 10760 10759 10758 10757 10756 10754 10753 10752 10750 10749 10747 10746 10744 10742 10741 10739 10736 10734 10732 10730 10727 10724 10722 10719 10716 10713 10710 10706 10703 10700 10699 10699 10698 10696 10693 10690 10687
10720 10723 10726 10727 10729 10731 10733 10735 10736 10738 10739 10741 10742 10743 10745 10747 10750 10753 10756 10757 10758 10759 10761 10762 10764 10764 10765 10764 10765 10765 10764 10763 10762 10761 10760 10759 10758 10757 10757 10756 10756 10755 10754 10753 10752 10751 10750 10748 10747 10746 10745 10744 10743 10742 10741 10740 10739 10737 10736 10734 10732 10731 10729 10727 10725 10723 10721 10718 10715 10713 10710 10707 10704 10701 10698 10694 10690 10686 10683 10683 10683 10681 10679 10676 10673
10710 10713 10715 10717 10720 10722 10724 10725 10726 10728 10729 10730 10731 10732 10734 10737 10740 10743 10744 10745 10745 10747 10748 10750 10751 10753 10754 10754 10755 10755 10755 10754 10752 10751 10749 10748 10747 10746 10746 10746 10745 10744 10743 10742 10740 10739 10738 10737 10735 10735 10734 10733 10731 10730 10729 10728 10727 10726 10724 10722 10721 10719 10717 10714 10712 10711 10708 10706 10703 10701 10698 10695 10691 10688 10684 10681 10677 10673 10670 10668 10667 10666 10663 10660 10658
10697 10700 10702 10706 10709 10711 10712 10714 10716 10718 10720 10721 10722 10723 10724 10727 10731 10734 10735 10735 10734 10735 10736 10737 10739 10741 10742 10743 10743 10743 10742 10742 10740 10739 10738 10737 10736 10735 10735 10734 10733 10732 10731 10730 10729 10728 10727 10725 10724 10723 10722 10721 10719 10718 10717 10716 10716 10714 10712 10711 10710 10708 10706 10703 10701 10699 10697 10694 10691 10688 10685 10682 10678 10675 10671 10668 10665 10661 10657 10654 10652 10651 10648 10645 10642
10685 10687 10690 10694 10698 10700 10702 10704 10707 10709 10710 10711 10713 10714 10716 10717 10720 10723 10725 10725 10724 10724 10725 10727 10729 10730 10731 10731 10731 10730 10729 10728 10728 10727 10726 10726 10725 10724 10723 10722 10721 10720 10719 10719 10718 10717 10716 10715 10714 10712 10711 10709 10708 10706 10704 10703 10702 10701 10699 10698 10697 10696 10694 10692 10689 10686 10684 10680 10676 10673 10670 10667 10664 10661 10658 10655 10651 10648 10644 10641 10639 10637 10635 10631 10628
10674 10676 10679 10684 10688 10691 10692 10694 10696 10698 10700 10701 10702 10704 10706 10707 10709 10712 10714 10714 10714 10715 10716 10718 10719 10720 10721 10720 10719 10718 10718 10717 10716 10715 10715 10714 10713 10712 10711 10710 10709 10708 10707 10707 10706 10705 10705 10704 10702 10700 10699 10697 10696 10694 10692 10690 10689 10687 10685 10684 10683 10682 10680 10677 10674 10671 10669 10666 10662 10658 10654 10652 10649 10646 10643 10641 10638 10634 10631 10629 10627 10626 10623 10619 10615